{"data":{"norad_id":57760,"epoch":"2026-09-22T01:13:47.249184Z","epoch_age_seconds":172121,"freshness":"FRESH","line1":"1 57760U 23133D   26265.05124131  .00000966  00000+0  10709-3 0  9995","line2":"2 57760  80.9949 241.9425 0008863  26.5773 333.5891 14.86547526156369","mean_motion":14.86547526,"eccentricity":0.0008863,"inclination_deg":80.9949,"raan_deg":241.9425,"arg_perigee_deg":26.5773,"mean_anomaly_deg":333.5891,"bstar":0.00010709,"rev_number":15636,"period_min":96.868749556548,"perigee_km":602.54020983068,"apogee_km":614.92513501201,"semimajor_km":6986.8696724213,"source":"CELESTRAK","updated_at":"2026-09-23T09:00:18.337622Z"}}